Wind_Speed
38 37 41 36 35 35 32 29 24 19 22 15 18 14 15 15 16 12 10 9 12 12 11 13 11 8 9 10 11 15 18 21 21 18 19 14 14 12 13 15 14 15 14
37 32 29 26 36 28 34 23 26 23 23 21 17 14 17 12 10 11 9 7 12 13 12 12 13 10 10 10 11 13 14 15 19 16 13 11 10 10 11 12 14 13 12
23 26 28 10 6 27 15 16 17 19 21 20 22 20 19 17 16 12 11 11 15 14 13 14 14 12 16 14 13 13 16 16 15 16 15 14 11 12 12 12 14 15 14
10 7 16 16 8 14 25 12 11 21 22 23 20 21 17 17 16 14 14 14 13 16 14 12 13 13 14 15 14 17 19 18 16 16 16 16 14 17 14 14 15 17 17
5 4 8 15 15 18 24 42 25 28 23 21 22 21 19 18 17 19 17 13 15 11 11 13 14 14 15 15 17 15 16 18 18 15 16 15 19 23 21 14 15 16 15
8 5 6 14 19 34 46 35 31 29 23 23 23 23 23 21 19 21 19 16 15 15 13 15 15 18 17 18 19 20 19 16 17 16 19 17 16 19 19 20 19 21 19
4 6 4 13 21 36 32 28 22 25 22 22 23 22 22 22 21 23 23 21 20 19 16 15 17 19 22 22 19 15 17 21 21 19 18 17 14 17 19 17 19 21 22
3 2 4 8 13 28 23 24 16 16 16 18 18 19 17 22 24 26 26 25 25 24 24 21 20 20 19 19 23 20 18 18 19 23 21 20 19 19 20 16 15 16 18
5 2 2 5 5 11 25 17 19 19 17 16 19 17 17 22 26 28 27 24 26 24 22 24 25 24 22 24 20 21 20 18 16 17 18 22 18 17 15 16 15 15 19
2 3 3 4 3 3 7 10 14 14 15 16 16 20 20 22 25 28 27 29 30 30 28 27 26 28 27 25 26 27 28 25 22 21 20 21 21 19 19 18 16 16 20
3 4 2 2 1 2 4 7 11 12 12 20 23 21 23 24 25 26 26 29 30 28 27 25 23 23 27 30 31 29 29 24 25 24 23 20 23 23 20 19 18 17 19
12 9 7 5 7 7 8 8 10 12 17 23 23 24 24 27 29 34 33 29 30 29 27 22 23 27 29 29 26 30 31 26 26 25 25 19 17 18 17 17 19 17 14
10 13 13 11 10 14 10 7 6 4 11 13 15 13 11 11 14 17 13 12 12 16 21 28 32 24 27 29 29 29 28 31 30 30 28 29 25 21 16 13 15 16 13
9 8 10 12 13 11 12 10 6 5 11 17 17 11 14 17 13 18 15 14 17 21 24 23 23 25 36 30 29 30 31 34 36 33 25 26 23 23 21 21 17 16 16
10 10 10 5 7 11 11 15 12 11 12 13 14 17 18 20 19 21 17 16 15 15 21 21 23 21 22 29 40 35 35 37 35 31 28 24 25 26 27 23 21 19 17
10 10 10 10 8 8 9 11 11 10 12 14 15 16 16 20 24 25 28 28 27 27 27 29 30 29 27 28 26 32 36 40 36 36 30 27 26 27 25 25 22 20 18
11 10 11 8 9 11 10 11 5 15 13 15 16 16 19 20 21 26 29 28 26 29 29 29 28 30 30 30 29 30 33 35 33 35 32 25 24 23 23 21 18 18 17
12 12 12 11 13 10 11 11 10 14 11 14 15 18 23 25 26 23 21 23 26 26 27 27 27 27 26 28 26 31 33 37 34 33 31 28 26 24 21 19 18 18 18
12 11 10 13 11 11 11 11 10 12 10 12 12 15 21 26 23 19 16 15 17 19 22 22 22 20 21 22 24 28 30 31 33 31 26 23 26 26 24 22 20 18 17
11 10 12 12 13 11 11 12 12 8 11 11 10 13 20 25 20 19 16 11 12 15 18 17 16 17 20 24 24 24 24 32 30 29 27 25 21 19 17 18 15 14 13
8 12 13 11 17 14 16 10 10 7 11 9 10 13 18 15 15 15 14 14 13 11 12 14 14 16 19 22 21 28 31 29 32 27 26 22 16 15 14 14 12 12 15
10 12 11 12 15 14 15 11 8 10 7 6 7 12 13 13 11 8 10 11 15 15 11 10 11 16 22 26 32 30 31 29 26 24 23 19 18 15 13 11 11 15 15
7 13 12 11 15 13 13 11 9 9 10 9 10 8 10 10 8 2 4 10 7 11 14 9 10 11 13 14 20 23 25 23 20 17 16 16 16 15 13 11 14 16 14
11 9 11 9 15 14 13 12 13 11 8 7 6 5 7 3 2 1 5 6 2 5 8 15 13 10 10 9 9 11 17 19 18 17 15 16 15 14 14 16 15 15 15
13 9 11 8 11 12 10 10 12 10 7 4 7 7 5 5 4 3 2 3 6 6 5 3 6 7 5 5 5 5 7 8 9 13 14 16 16 16 18 16 16 13 15
14 10 8 4 7 7 9 7 7 9 9 9 8 11 10 13 10 6 8 11 8 7 3 3 5 7 8 9 6 7 9 11 13 14 15 15 14 17 16 16 13 14 12
Wind_Direction
220 231 225 222 216 213 202 205 185 199 211 190 195 212 202 215 215 224 229 227 256 282 248 257 270 259 265 249 229 223 233 240 250 265 269 269 272 266 249 240 246 250 254
219 218 219 228 218 208 198 201 190 198 208 224 214 217 207 218 226 222 217 215 252 268 272 260 266 275 269 255 243 236 243 247 252 263 261 270 268 259 245 239 238 229 246
214 201 183 156 232 10 92 197 189 209 214 218 216 220 207 214 229 220 237 236 230 249 261 273 257 252 260 262 250 243 249 247 249 256 257 262 254 252 249 240 233 239 238
14 248 222 242 253 245 221 249 219 226 220 229 221 214 223 205 227 229 228 249 253 239 247 256 270 271 273 268 269 251 251 252 254 256 254 251 240 242 248 244 240 228 231
65 300 282 245 251 221 189 193 222 222 220 230 231 215 219 212 220 228 234 245 252 251 249 256 252 254 265 270 272 276 255 249 247 247 255 251 235 232 250 255 246 234 236
191 223 286 245 246 201 196 205 213 212 201 219 229 228 215 218 215 232 239 238 247 239 241 260 255 252 253 266 272 269 266 262 250 244 241 247 249 249 246 250 245 231 225
255 275 197 205 197 200 210 213 213 213 210 220 227 233 230 223 218 229 234 237 240 243 244 248 254 245 252 256 260 258 261 258 254 253 256 248 257 244 252 252 256 244 243
230 132 174 223 240 228 211 213 244 234 220 228 233 238 238 236 228 235 232 235 242 243 246 251 250 242 246 259 246 252 266 267 262 252 255 253 256 252 260 264 266 246 241
64 38 327 240 212 208 216 243 234 234 228 225 220 227 247 251 242 240 238 233 240 246 249 245 250 251 242 248 241 253 259 262 258 248 252 250 243 246 245 244 241 221 220
79 26 359 333 348 242 232 233 240 223 217 235 244 256 265 261 255 245 248 247 247 251 252 253 244 244 251 250 245 240 250 256 253 249 251 251 243 244 249 250 238 232 223
338 296 302 295 35 330 271 250 244 238 257 272 277 264 249 247 253 260 255 255 249 247 248 247 256 252 244 254 254 247 248 252 245 245 247 252 242 244 245 243 241 233 223
12 11 3 332 329 290 294 288 274 266 267 269 269 264 263 258 257 263 258 254 258 246 234 239 244 247 255 259 257 256 250 245 245 241 235 239 240 237 243 237 232 238 229
17 8 11 5 12 357 343 343 303 278 293 284 278 281 283 279 283 280 281 279 276 264 256 251 245 247 250 239 252 252 250 244 239 241 235 232 232 227 238 234 229 231 234
4 16 6 0 354 349 355 339 319 301 283 270 273 287 283 268 262 263 260 252 253 256 258 254 256 255 254 248 241 237 251 245 238 237 236 233 229 224 217 228 226 214 216
357 5 350 325 326 293 343 355 344 349 342 331 298 275 271 271 267 263 261 258 250 249 247 249 257 256 262 270 254 245 243 242 234 233 230 227 227 225 219 220 219 213 213
352 339 333 325 318 319 303 314 323 339 328 318 320 315 293 285 280 272 266 260 260 261 261 261 257 265 271 272 273 246 244 238 236 229 218 229 229 220 215 217 216 214 206
337 333 327 343 330 318 304 310 322 321 320 326 322 323 324 334 311 286 274 267 262 255 260 263 263 264 268 262 261 250 237 228 237 224 221 218 225 225 218 211 212 207 206
328 335 327 329 315 305 301 309 326 322 322 324 324 326 323 326 328 320 292 276 264 256 257 264 271 272 263 254 251 247 241 241 234 213 215 217 213 205 198 195 192 188 199
324 322 319 314 313 300 291 284 286 305 305 314 317 320 311 322 330 334 320 306 274 266 262 266 273 269 255 252 252 242 243 237 221 207 204 193 177 179 172 183 188 204 209
325 312 308 325 312 301 298 288 282 292 310 301 312 305 316 331 342 350 349 329 299 284 278 273 273 259 250 252 245 234 225 194 194 198 192 194 199 197 193 200 196 203 207
326 324 347 323 338 1 27 7 326 318 323 316 305 307 326 337 350 356 9 6 340 310 281 269 265 274 273 252 242 228 207 194 191 192 180 170 161 168 168 178 178 183 182
340 335 335 334 342 342 341 339 348 327 317 318 317 310 314 325 329 343 358 15 13 10 336 291 268 236 224 215 214 202 180 169 162 164 164 162 164 175 175 162 166 170 175
325 351 346 340 341 348 342 345 338 325 317 292 295 304 306 299 330 27 1 356 11 57 49 74 127 128 139 152 157 157 155 149 147 153 154 156 163 164 169 182 181 181 179
308 299 329 325 331 332 333 325 329 321 306 289 302 335 6 347 27 155 338 357 144 102 74 69 83 96 108 110 105 122 147 150 150 154 166 168 168 158 166 172 171 178 188
303 298 308 292 307 309 313 326 321 327 321 305 313 317 321 339 313 270 252 169 119 129 110 91 118 119 109 102 123 146 148 143 149 169 176 173 175 173 170 176 178 185 189
301 281 302 274 307 307 300 300 314 317 303 274 267 285 305 302 291 250 226 222 222 229 267 202 180 157 163 183 186 183 179 173 173 176 179 175 175 172 182 175 190 189 202
Height
1432 1438 1448 1460 1462 1465 1469 1472 1482 1488 1491 1488 1492 1490 1491 1493 1497 1499 1502 1506 1507 1509 1512 1512 1511 1510 1510 1510 1511 1513 1516 1518 1517 1519 1519 1519 1519 1519 1522 1522 1522 1522 1524
1426 1430 1447 1449 1455 1463 1463 1474 1473 1483 1486 1488 1488 1490 1488 1491 1493 1496 1498 1503 1505 1506 1508 1510 1509 1509 1509 1509 1509 1510 1512 1514 1515 1514 1515 1516 1516 1517 1518 1519 1520 1520 1521
1410 1431 1431 1443 1423 1401 1426 1473 1468 1480 1484 1484 1483 1487 1486 1490 1490 1492 1496 1499 1501 1502 1503 1506 1508 1508 1508 1508 1508 1508 1509 1510 1510 1511 1511 1513 1513 1513 1514 1515 1516 1517 1518
1429 1426 1431 1435 1435 1437 1467 1466 1463 1480 1480 1479 1481 1482 1482 1485 1488 1489 1492 1496 1497 1498 1499 1501 1504 1506 1505 1506 1506 1506 1506 1506 1507 1507 1508 1509 1509 1509 1510 1511 1512 1513 1514
1431 1436 1439 1439 1434 1437 1433 1446 1461 1472 1471 1472 1479 1478 1482 1482 1484 1486 1487 1489 1493 1493 1493 1496 1498 1501 1502 1502 1502 1502 1503 1503 1503 1503 1504 1505 1505 1505 1505 1507 1508 1509 1509
1429 1432 1435 1441 1440 1442 1445 1450 1455 1460 1453 1465 1473 1475 1475 1477 1479 1483 1482 1483 1487 1488 1487 1489 1493 1496 1497 1497 1498 1498 1499 1500 1501 1501 1501 1501 1502 1502 1503 1503 1504 1505 1505
1430 1435 1437 1438 1442 1448 1451 1449 1452 1456 1455 1463 1467 1471 1471 1472 1475 1477 1478 1478 1480 1482 1480 1481 1486 1489 1492 1492 1492 1493 1495 1496 1497 1498 1498 1499 1500 1499 1500 1499 1499 1500 1501
1436 1439 1439 1441 1441 1444 1447 1449 1450 1452 1452 1458 1463 1467 1466 1468 1472 1473 1472 1473 1476 1477 1478 1477 1480 1483 1486 1487 1487 1488 1489 1490 1491 1492 1493 1494 1495 1496 1496 1497 1497 1498 1500
1438 1439 1440 1442 1444 1446 1447 1448 1451 1451 1449 1452 1457 1461 1464 1467 1467 1467 1467 1467 1469 1469 1470 1472 1474 1477 1480 1481 1482 1482 1484 1486 1486 1487 1487 1488 1489 1490 1490 1491 1493 1495 1497
1437 1438 1440 1440 1443 1445 1446 1447 1450 1449 1450 1452 1453 1457 1456 1458 1460 1462 1462 1463 1462 1463 1464 1464 1466 1469 1472 1475 1476 1476 1477 1480 1482 1483 1483 1484 1486 1487 1487 1485 1487 1489 1494
1439 1440 1439 1440 1440 1442 1443 1444 1446 1444 1442 1444 1446 1450 1453 1453 1454 1456 1459 1459 1457 1457 1458 1459 1459 1461 1465 1467 1468 1470 1471 1475 1476 1477 1478 1479 1480 1481 1483 1484 1483 1483 1485
1439 1437 1436 1435 1435 1437 1437 1437 1438 1438 1439 1442 1444 1444 1444 1446 1448 1449 1449 1450 1450 1449 1451 1454 1456 1456 1458 1459 1461 1462 1465 1468 1469 1472 1474 1474 1474 1474 1476 1478 1482 1482 1479
1439 1437 1435 1435 1432 1436 1437 1437 1438 1438 1440 1441 1443 1443 1443 1444 1443 1444 1443 1442 1443 1443 1444 1446 1447 1448 1449 1450 1452 1456 1458 1460 1462 1464 1466 1469 1470 1472 1473 1475 1476 1480 1482
1443 1442 1440 1438 1438 1437 1439 1436 1436 1436 1437 1439 1439 1438 1440 1439 1438 1438 1436 1434 1433 1436 1438 1437 1439 1440 1440 1442 1443 1446 1450 1452 1453 1456 1460 1462 1466 1469 1470 1471 1474 1476 1479
1445 1444 1444 1443 1443 1440 1436 1437 1437 1437 1439 1438 1437 1437 1435 1435 1436 1434 1433 1432 1430 1429 1429 1430 1430 1430 1431 1431 1432 1436 1439 1443 1446 1450 1454 1457 1458 1461 1464 1466 1469 1471 1473
1446 1444 1442 1440 1438 1439 1439 1436 1437 1437 1435 1436 1432 1430 1429 1427 1427 1427 1426 1423 1423 1423 1423 1421 1421 1422 1422 1423 1424 1425 1428 1433 1435 1441 1445 1448 1452 1454 1457 1461 1463 1468 1469
1446 1445 1442 1438 1438 1437 1437 1437 1433 1435 1434 1430 1428 1427 1425 1421 1417 1415 1415 1413 1413 1414 1412 1412 1411 1411 1410 1413 1416 1420 1421 1423 1428 1433 1438 1441 1445 1450 1454 1455 1460 1464 1466
1443 1440 1437 1436 1436 1435 1433 1433 1432 1432 1429 1427 1425 1422 1418 1416 1412 1406 1406 1403 1403 1401 1402 1402 1402 1401 1404 1405 1408 1411 1413 1417 1421 1425 1431 1435 1439 1445 1449 1452 1456 1459 1460
1440 1439 1438 1436 1433 1433 1431 1430 1429 1427 1422 1423 1422 1421 1416 1416 1409 1405 1402 1397 1397 1396 1395 1396 1395 1396 1395 1399 1402 1403 1407 1410 1412 1419 1425 1432 1433 1439 1441 1447 1453 1456 1459
1438 1435 1434 1432 1430 1426 1425 1425 1425 1422 1420 1423 1421 1418 1414 1413 1406 1403 1399 1397 1394 1392 1392 1390 1390 1392 1393 1395 1395 1397 1401 1400 1407 1416 1420 1427 1433 1435 1437 1444 1448 1452 1456
1437 1435 1434 1433 1430 1426 1424 1421 1422 1420 1421 1419 1417 1414 1414 1413 1408 1404 1399 1395 1395 1390 1389 1387 1387 1389 1388 1390 1392 1392 1396 1401 1408 1412 1418 1421 1429 1433 1437 1442 1444 1449 1454
1436 1435 1433 1431 1428 1427 1424 1423 1422 1420 1418 1415 1413 1413 1414 1413 1408 1403 1402 1398 1395 1390 1388 1386 1384 1387 1385 1385 1386 1389 1393 1397 1403 1412 1415 1419 1426 1432 1438 1439 1444 1449 1453
1435 1432 1430 1429 1428 1425 1424 1422 1419 1418 1415 1412 1413 1413 1412 1410 1406 1401 1401 1399 1398 1395 1395 1392 1386 1388 1387 1388 1389 1392 1395 1401 1406 1412 1418 1423 1428 1431 1435 1439 1445 1449 1452
1433 1431 1429 1427 1426 1424 1422 1421 1419 1416 1415 1413 1412 1411 1408 1407 1405 1403 1401 1401 1400 1401 1401 1398 1395 1395 1396 1397 1397 1400 1404 1406 1411 1415 1418 1423 1428 1432 1437 1440 1443 1448 1450
1431 1430 1428 1427 1426 1424 1422 1420 1418 1415 1413 1412 1410 1410 1408 1407 1406 1402 1402 1403 1403 1404 1403 1403 1401 1400 1402 1403 1404 1406 1407 1410 1413 1417 1420 1423 1428 1433 1437 1441 1444 1446 1448
1428 1427 1426 1424 1423 1421 1420 1418 1417 1415 1413 1412 1411 1409 1407 1405 1402 1401 1401 1403 1404 1405 1405 1405 1404 1403 1405 1405 1408 1409 1411 1413 1417 1419 1423 1424 1430 1434 1437 1440 1444 1445 1447